Time,TemperatureF,DewpointF,PressureIn,WindDirection,WindDirectionDegrees,WindSpeedMPH,WindSpeedGustMPH,Humidity,HourlyPrecipIn,Conditions,Clouds,dailyrainin,SoftwareType,DateUTC
2013-07-03 07:20:00,59.5,47.7,29.85,NE,55,0.0,0.0,65,0.00,,---,0.00,VWS V14.00,2013-07-03 12:20:00,
2013-07-03 07:21:00,59.8,48.0,29.85,NE,55,0.0,0.0,65,0.00,,---,0.00,VWS V14.00,2013-07-03 12:21:00,
2013-07-03 07:25:00,59.3,47.5,29.85,NE,55,0.0,0.0,65,0.00,,---,0.00,VWS V14.00,2013-07-03 12:25:00,
2013-07-03 07:26:00,59.3,47.5,29.85,NE,55,0.0,0.0,65,0.00,,---,0.00,VWS V14.00,2013-07-03 12:26:00,
2013-07-03 07:31:00,59.2,47.5,29.85,NE,55,0.0,0.0,65,0.00,,---,0.00,VWS V14.00,2013-07-03 12:31:00,
2013-07-03 07:32:00,59.2,47.5,29.85,NE,55,0.0,0.0,65,0.00,,---,0.00,VWS V14.00,2013-07-03 12:32:00,
2013-07-03 07:36:00,59.2,47.5,29.85,NE,55,0.0,0.0,65,0.00,,---,0.00,VWS V14.00,2013-07-03 12:36:00,
2013-07-03 07:37:00,59.2,47.5,29.85,NE,55,0.0,0.0,65,0.00,,---,0.00,VWS V14.00,2013-07-03 12:37:00,
2013-07-03 07:41:00,59.2,47.5,29.85,NE,55,0.0,0.0,65,0.00,,---,0.00,VWS V14.00,2013-07-03 12:41:00,
2013-07-03 07:42:00,59.2,47.5,29.85,NE,55,0.0,0.0,65,0.00,,---,0.00,VWS V14.00,2013-07-03 12:42:00,
2013-07-03 07:46:00,59.2,47.5,29.85,NE,55,0.0,0.0,65,0.00,,---,0.00,VWS V14.00,2013-07-03 12:46:00,
2013-07-03 07:47:00,59.2,47.5,29.85,NE,55,0.0,0.0,65,0.00,,---,0.00,VWS V14.00,2013-07-03 12:47:00,
2013-07-03 07:48:00,59.2,47.5,29.85,NE,55,0.0,0.0,65,0.00,,---,0.00,VWS V14.00,2013-07-03 12:48:00,
2013-07-03 07:51:00,59.2,47.5,29.85,NE,55,0.0,0.0,65,0.00,,---,0.00,VWS V14.00,2013-07-03 12:51:00,
2013-07-03 07:52:00,59.2,47.5,29.85,NE,55,0.0,0.0,65,0.00,,---,0.00,VWS V14.00,2013-07-03 12:52:00,
2013-07-03 07:53:00,59.3,48.0,29.85,NE,55,0.0,0.0,66,0.00,,---,0.00,VWS V14.00,2013-07-03 12:53:00,
2013-07-03 07:57:00,59.5,48.2,29.85,NE,55,0.0,0.0,66,0.00,,---,0.00,VWS V14.00,2013-07-03 12:57:00,
2013-07-03 07:58:00,59.5,48.2,29.85,NE,55,0.0,0.0,66,0.00,,---,0.00,VWS V14.00,2013-07-03 12:58:00,
2013-07-03 07:59:00,59.6,48.2,29.85,NE,55,0.0,0.0,66,0.00,,---,0.00,VWS V14.00,2013-07-03 12:59:00,
2013-07-03 08:02:00,59.6,48.2,29.85,NE,55,0.0,0.0,66,0.00,,---,0.00,VWS V14.00,2013-07-03 13:02:00,
2013-07-03 08:03:00,59.8,48.4,29.85,NE,55,0.0,0.0,66,0.00,,---,0.00,VWS V14.00,2013-07-03 13:03:00,
2013-07-03 08:05:00,59.8,48.4,29.85,NE,55,0.0,0.0,66,0.00,,---,0.00,VWS V14.00,2013-07-03 13:05:00,
2013-07-03 08:07:00,59.9,48.5,29.85,NE,55,0.0,0.0,66,0.00,,---,0.00,VWS V14.00,2013-07-03 13:07:00,
2013-07-03 08:08:00,59.9,48.5,29.85,NE,55,0.0,0.0,66,0.00,,---,0.00,VWS V14.00,2013-07-03 13:08:00,
2013-07-03 08:10:00,60.2,48.0,29.85,NE,55,0.0,0.0,64,0.00,,---,0.00,VWS V14.00,2013-07-03 13:10:00,
2013-07-03 08:13:00,60.7,48.5,29.85,NE,55,0.0,0.0,64,0.00,,---,0.00,VWS V14.00,2013-07-03 13:13:00,
2013-07-03 08:16:00,61.2,48.1,29.87,NE,55,0.0,0.0,62,0.00,,---,0.00,VWS V14.00,2013-07-03 13:16:00,
2013-07-03 08:18:00,62.0,48.4,29.87,NE,55,0.0,0.0,61,0.00,,---,0.00,VWS V14.00,2013-07-03 13:18:00,
2013-07-03 08:21:00,62.7,48.6,29.87,NE,55,0.0,0.0,60,0.00,,---,0.00,VWS V14.00,2013-07-03 13:21:00,
2013-07-03 08:23:00,63.4,48.4,29.87,NE,55,0.0,0.0,58,0.00,,---,0.00,VWS V14.00,2013-07-03 13:23:00,
2013-07-03 08:24:00,63.5,48.5,29.87,NE,55,0.0,0.0,58,0.00,,---,0.00,VWS V14.00,2013-07-03 13:24:00,
2013-07-03 08:25:00,63.9,48.4,29.87,NE,55,0.0,0.0,57,0.00,,---,0.00,VWS V14.00,2013-07-03 13:25:00,
2013-07-03 08:28:00,64.7,47.7,29.85,NE,55,0.0,0.0,54,0.00,,---,0.00,VWS V14.00,2013-07-03 13:28:00,
2013-07-03 08:29:00,64.8,47.3,29.85,NE,55,0.0,0.0,53,0.00,,---,0.00,VWS V14.00,2013-07-03 13:29:00,
2013-07-03 08:30:00,65.2,48.2,29.85,NE,55,0.0,0.0,54,0.00,,---,0.00,VWS V14.00,2013-07-03 13:30:00,
2013-07-03 08:34:00,66.1,48.5,29.85,NE,55,0.0,0.0,53,0.00,,---,0.00,VWS V14.00,2013-07-03 13:34:00,
2013-07-03 08:35:00,66.4,48.3,29.85,NE,55,0.0,0.0,52,0.00,,---,0.00,VWS V14.00,2013-07-03 13:35:00,
2013-07-03 08:37:00,66.8,48.6,29.85,NE,55,0.0,0.0,52,0.00,,---,0.00,VWS V14.00,2013-07-03 13:37:00,
2013-07-03 08:39:00,67.1,48.4,29.85,NE,55,0.0,0.0,51,0.00,,---,0.00,VWS V14.00,2013-07-03 13:39:00,
2013-07-03 08:40:00,67.3,48.0,29.85,NE,55,0.0,0.0,50,0.00,,---,0.00,VWS V14.00,2013-07-03 13:40:00,
2013-07-03 08:42:00,67.8,46.3,29.85,NE,55,0.0,0.0,46,0.00,,---,0.00,VWS V14.00,2013-07-03 13:42:00,
2013-07-03 08:44:00,68.3,47.9,29.84,NE,55,0.0,0.0,48,0.00,,---,0.00,VWS V14.00,2013-07-03 13:44:00,
2013-07-03 08:45:00,68.3,46.7,29.84,NE,55,0.0,0.0,46,0.00,,---,0.00,VWS V14.00,2013-07-03 13:45:00,
2013-07-03 08:47:00,68.8,47.2,29.84,NE,55,0.0,0.0,46,0.00,,---,0.00,VWS V14.00,2013-07-03 13:47:00,
2013-07-03 08:50:00,69.1,46.3,29.84,NE,55,0.0,0.0,44,0.00,,---,0.00,VWS V14.00,2013-07-03 13:50:00,
2013-07-03 08:51:00,69.1,46.3,29.84,NE,55,0.0,0.0,44,0.00,,---,0.00,VWS V14.00,2013-07-03 13:51:00,
2013-07-03 08:52:00,69.8,46.9,29.84,NE,55,0.0,0.0,44,0.00,,---,0.00,VWS V14.00,2013-07-03 13:52:00,
2013-07-03 08:55:00,70.1,46.0,29.84,NE,55,0.0,0.0,42,0.00,,---,0.00,VWS V14.00,2013-07-03 13:55:00,
2013-07-03 08:56:00,70.1,45.3,29.84,NE,55,0.0,0.0,41,0.00,,---,0.00,VWS V14.00,2013-07-03 13:56:00,
2013-07-03 08:58:00,70.6,45.1,29.83,NE,55,0.0,0.0,40,0.00,,---,0.00,VWS V14.00,2013-07-03 13:58:00,
2013-07-03 09:00:00,70.9,45.4,29.83,ENE,66,0.0,0.0,40,0.00,,---,0.00,VWS V14.00,2013-07-03 14:00:00,
2013-07-03 09:01:00,70.9,44.7,29.83,SSW,200,6.0,6.0,39,0.00,,---,0.00,VWS V14.00,2013-07-03 14:01:00,
2013-07-03 09:04:00,71.3,45.1,29.83,SSW,209,0.0,8.0,39,0.00,,---,0.00,VWS V14.00,2013-07-03 14:04:00,
2013-07-03 09:06:00,71.6,43.3,29.83,SSW,198,0.0,8.0,36,0.00,,---,0.00,VWS V14.00,2013-07-03 14:06:00,
2013-07-03 09:07:00,71.6,43.3,29.83,SSW,193,0.0,8.0,36,0.00,,---,0.00,VWS V14.00,2013-07-03 14:07:00,
2013-07-03 09:09:00,72.1,43.7,29.83,SSE,152,0.0,8.0,36,0.00,,---,0.00,VWS V14.00,2013-07-03 14:09:00,
2013-07-03 09:11:00,72.1,44.4,29.83,South,169,1.0,8.0,37,0.00,,---,0.00,VWS V14.00,2013-07-03 14:11:00,
2013-07-03 09:12:00,71.6,42.5,29.83,South,169,4.0,8.0,35,0.00,,---,0.00,VWS V14.00,2013-07-03 14:12:00,
2013-07-03 09:15:00,71.6,45.4,29.84,SSE,164,0.0,8.0,39,0.00,,---,0.00,VWS V14.00,2013-07-03 14:15:00,
2013-07-03 09:16:00,71.8,44.2,29.84,SSE,148,7.0,8.0,37,0.00,,---,0.00,VWS V14.00,2013-07-03 14:16:00,
2013-07-03 09:17:00,71.8,44.2,29.84,SSE,147,0.0,8.0,37,0.00,,---,0.00,VWS V14.00,2013-07-03 14:17:00,
2013-07-03 09:18:00,72.0,45.0,29.84,South,172,0.0,8.0,38,0.00,,---,0.00,VWS V14.00,2013-07-03 14:18:00,
2013-07-03 09:22:00,72.5,44.8,29.84,SSE,154,0.0,8.0,37,0.00,,---,0.00,VWS V14.00,2013-07-03 14:22:00,
2013-07-03 09:23:00,72.5,44.8,29.84,SE,145,0.0,8.0,37,0.00,,---,0.00,VWS V14.00,2013-07-03 14:23:00,
2013-07-03 09:27:00,72.7,43.5,29.84,SSE,161,0.0,8.0,35,0.00,,---,0.00,VWS V14.00,2013-07-03 14:27:00,
2013-07-03 09:28:00,72.7,44.2,29.84,SE,134,0.0,8.0,36,0.00,,---,0.00,VWS V14.00,2013-07-03 14:28:00,
2013-07-03 09:30:00,72.5,44.1,29.84,South,175,3.0,6.0,36,0.00,,---,0.00,VWS V14.00,2013-07-03 14:30:00,
2013-07-03 09:32:00,72.5,44.1,29.84,South,169,3.0,6.0,36,0.00,,---,0.00,VWS V14.00,2013-07-03 14:32:00,
2013-07-03 09:34:00,72.7,45.0,29.84,SSE,162,0.0,6.0,37,0.00,,---,0.00,VWS V14.00,2013-07-03 14:34:00,
2013-07-03 09:35:00,72.7,45.0,29.84,SSE,161,0.0,6.0,37,0.00,,---,0.00,VWS V14.00,2013-07-03 14:35:00,
2013-07-03 09:37:00,73.0,45.2,29.84,SSE,162,1.0,6.0,37,0.00,,---,0.00,VWS V14.00,2013-07-03 14:37:00,
2013-07-03 09:38:00,73.0,44.5,29.84,South,175,0.0,7.0,36,0.00,,---,0.00,VWS V14.00,2013-07-03 14:38:00,
2013-07-03 09:40:00,73.5,44.2,29.84,South,178,0.0,7.0,35,0.00,,---,0.00,VWS V14.00,2013-07-03 14:40:00,
2013-07-03 09:42:00,73.9,44.5,29.84,South,174,0.0,7.0,35,0.00,,---,0.00,VWS V14.00,2013-07-03 14:42:00,
2013-07-03 09:45:00,73.5,44.2,29.83,South,176,0.0,10.0,35,0.00,,---,0.00,VWS V14.00,2013-07-03 14:45:00,
2013-07-03 09:47:00,73.9,44.5,29.83,SSW,200,6.0,10.0,35,0.00,,---,0.00,VWS V14.00,2013-07-03 14:47:00,
2013-07-03 09:50:00,73.9,45.3,29.83,SSE,161,4.0,10.0,36,0.00,,---,0.00,VWS V14.00,2013-07-03 14:50:00,
2013-07-03 09:51:00,74.0,45.4,29.83,SSE,158,0.0,10.0,36,0.00,,---,0.00,VWS V14.00,2013-07-03 14:51:00,
2013-07-03 09:52:00,74.4,45.0,29.83,South,169,0.0,10.0,35,0.00,,---,0.00,VWS V14.00,2013-07-03 14:52:00,
2013-07-03 09:53:00,74.2,44.8,29.83,SSW,193,1.0,10.0,35,0.00,,---,0.00,VWS V14.00,2013-07-03 14:53:00,
2013-07-03 09:56:00,74.2,44.1,29.83,ESE,120,2.0,10.0,34,0.00,,---,0.00,VWS V14.00,2013-07-03 14:56:00,
2013-07-03 09:58:00,74.2,44.1,29.83,South,169,3.0,10.0,34,0.00,,---,0.00,VWS V14.00,2013-07-03 14:58:00,
2013-07-03 10:01:00,74.0,44.6,29.83,SE,145,2.0,7.0,35,0.00,,---,0.00,VWS V14.00,2013-07-03 15:01:00,
2013-07-03 10:02:00,74.0,44.6,29.83,SSE,155,4.0,7.0,35,0.00,,---,0.00,VWS V14.00,2013-07-03 15:02:00,
2013-07-03 10:03:00,73.9,44.5,29.83,SSE,155,1.0,7.0,35,0.00,,---,0.00,VWS V14.00,2013-07-03 15:03:00,
2013-07-03 10:07:00,74.0,44.6,29.83,South,191,0.0,7.0,35,0.00,,---,0.00,VWS V14.00,2013-07-03 15:07:00,
2013-07-03 10:08:00,74.0,44.6,29.83,South,171,0.0,7.0,35,0.00,,---,0.00,VWS V14.00,2013-07-03 15:08:00,
2013-07-03 10:12:00,74.6,45.2,29.83,SSE,158,0.0,8.0,35,0.00,,---,0.00,VWS V14.00,2013-07-03 15:12:00,
2013-07-03 10:13:00,74.7,45.3,29.83,SSE,158,0.0,8.0,35,0.00,,---,0.00,VWS V14.00,2013-07-03 15:13:00,
2013-07-03 10:16:00,74.9,46.2,29.82,SSE,161,0.0,9.0,36,0.00,,---,0.00,VWS V14.00,2013-07-03 15:16:00,
2013-07-03 10:18:00,74.6,45.2,29.82,South,179,3.0,12.0,35,0.00,,---,0.00,VWS V14.00,2013-07-03 15:18:00,
2013-07-03 10:19:00,74.6,44.4,29.82,South,176,0.0,12.0,34,0.00,,---,0.00,VWS V14.00,2013-07-03 15:19:00,
2013-07-03 10:21:00,74.2,44.8,29.82,South,175,0.0,12.0,35,0.00,,---,0.00,VWS V14.00,2013-07-03 15:21:00,
2013-07-03 10:23:00,74.2,45.6,29.82,SE,145,0.0,12.0,36,0.00,,---,0.00,VWS V14.00,2013-07-03 15:23:00,
2013-07-03 10:24:00,74.4,45.7,29.82,South,181,6.0,12.0,36,0.00,,---,0.00,VWS V14.00,2013-07-03 15:24:00,
2013-07-03 10:26:00,74.4,45.7,29.82,South,175,7.0,12.0,36,0.00,,---,0.00,VWS V14.00,2013-07-03 15:26:00,
2013-07-03 10:28:00,74.6,44.4,29.82,SE,141,3.0,12.0,34,0.00,,---,0.00,VWS V14.00,2013-07-03 15:28:00,
2013-07-03 10:29:00,74.4,45.0,29.82,SE,140,0.0,12.0,35,0.00,,---,0.00,VWS V14.00,2013-07-03 15:29:00,
2013-07-03 10:32:00,74.4,46.5,29.82,SSE,157,2.0,10.0,37,0.00,,---,0.00,VWS V14.00,2013-07-03 15:32:00,
2013-07-03 10:33:00,74.4,46.5,29.82,SSE,161,0.0,10.0,37,0.00,,---,0.00,VWS V14.00,2013-07-03 15:33:00,
2013-07-03 10:34:00,74.4,46.5,29.82,SSE,162,5.0,10.0,37,0.00,,---,0.00,VWS V14.00,2013-07-03 15:34:00,
2013-07-03 10:38:00,74.2,45.6,29.82,SSE,162,5.0,10.0,36,0.00,,---,0.00,VWS V14.00,2013-07-03 15:38:00,
2013-07-03 10:39:00,74.0,46.1,29.82,SE,136,0.0,12.0,37,0.00,,---,0.00,VWS V14.00,2013-07-03 15:39:00,
2013-07-03 10:40:00,73.9,46.7,29.82,South,178,0.0,12.0,38,0.00,,---,0.00,VWS V14.00,2013-07-03 15:40:00,
2013-07-03 10:43:00,74.2,47.0,29.82,SSE,164,0.0,12.0,38,0.00,,---,0.00,VWS V14.00,2013-07-03 15:43:00,
2013-07-03 10:45:00,74.2,45.6,29.82,SSE,157,0.0,12.0,36,0.00,,---,0.00,VWS V14.00,2013-07-03 15:45:00,
2013-07-03 10:49:00,73.9,46.7,29.82,SSW,196,7.0,12.0,38,0.00,,---,0.00,VWS V14.00,2013-07-03 15:49:00,
2013-07-03 10:50:00,73.7,46.5,29.82,SSE,154,0.0,12.0,38,0.00,,---,0.00,VWS V14.00,2013-07-03 15:50:00,
2013-07-03 10:52:00,73.5,45.7,29.82,South,189,0.0,12.0,37,0.00,,---,0.00,VWS V14.00,2013-07-03 15:52:00,
2013-07-03 10:54:00,74.0,46.8,29.82,South,189,3.0,12.0,38,0.00,,---,0.00,VWS V14.00,2013-07-03 15:54:00,
2013-07-03 10:57:00,74.0,45.4,29.82,SSW,198,0.0,12.0,36,0.00,,---,0.00,VWS V14.00,2013-07-03 15:57:00,
2013-07-03 10:59:00,74.2,46.3,29.82,South,175,2.0,12.0,37,0.00,,---,0.00,VWS V14.00,2013-07-03 15:59:00,
2013-07-03 11:03:00,74.7,46.0,29.82,South,172,2.0,7.0,36,0.00,,---,0.00,VWS V14.00,2013-07-03 16:03:00,
2013-07-03 11:04:00,74.7,46.0,29.82,ESE,119,0.0,7.0,36,0.00,,---,0.00,VWS V14.00,2013-07-03 16:04:00,
2013-07-03 11:08:00,74.9,46.9,29.82,SE,140,0.0,7.0,37,0.00,,---,0.00,VWS V14.00,2013-07-03 16:08:00,
2013-07-03 11:09:00,75.3,47.3,29.82,ESE,112,0.0,7.0,37,0.00,,---,0.00,VWS V14.00,2013-07-03 16:09:00,
2013-07-03 11:10:00,74.9,45.4,29.82,SSW,210,0.0,7.0,35,0.00,,---,0.00,VWS V14.00,2013-07-03 16:10:00,
2013-07-03 11:13:00,75.1,46.3,29.84,South,186,0.0,8.0,36,0.00,,---,0.00,VWS V14.00,2013-07-03 16:13:00,
2013-07-03 11:14:00,74.9,46.2,29.84,South,172,0.0,8.0,36,0.00,,---,0.00,VWS V14.00,2013-07-03 16:14:00,
2013-07-03 15:33:00,76.3,45.1,29.78,SSE,158,0.0,0.0,33,0.00,,---,0.00,VWS V14.00,2013-07-03 20:33:00,
2013-07-03 15:34:00,79.8,44.8,29.76,SE,126,0.0,0.0,29,0.00,,---,0.00,VWS V14.00,2013-07-03 20:34:00,
2013-07-03 15:35:00,80.1,45.0,29.76,SE,124,0.0,0.0,29,0.00,,---,0.00,VWS V14.00,2013-07-03 20:35:00,
2013-07-03 15:40:00,80.1,44.1,29.76,ESE,113,0.0,0.0,28,0.00,,---,0.00,VWS V14.00,2013-07-03 20:40:00,
2013-07-03 15:41:00,80.3,44.3,29.76,ESE,113,0.0,0.0,28,0.00,,---,0.00,VWS V14.00,2013-07-03 20:41:00,
2013-07-03 15:45:00,80.3,44.3,29.73,East,96,0.0,0.0,28,0.00,,---,0.00,VWS V14.00,2013-07-03 20:45:00,
2013-07-03 15:46:00,80.3,44.3,29.73,East,96,0.0,0.0,28,0.00,,---,0.00,VWS V14.00,2013-07-03 20:46:00,
2013-07-03 15:50:00,80.9,43.8,29.73,East,88,0.0,0.0,27,0.00,,---,0.00,VWS V14.00,2013-07-03 20:50:00,
2013-07-03 15:51:00,80.9,43.8,29.73,East,88,0.0,0.0,27,0.00,,---,0.00,VWS V14.00,2013-07-03 20:51:00,
2013-07-03 15:55:00,80.3,43.3,29.73,East,85,0.0,6.0,27,0.00,,---,0.00,VWS V14.00,2013-07-03 20:55:00,
2013-07-03 15:56:00,80.3,43.3,29.73,East,85,0.0,6.0,27,0.00,,---,0.00,VWS V14.00,2013-07-03 20:56:00,
2013-07-03 15:57:00,79.9,43.9,29.73,East,85,0.0,6.0,28,0.00,,---,0.00,VWS V14.00,2013-07-03 20:57:00,
2013-07-03 16:01:00,79.2,44.2,29.74,East,79,0.0,7.0,29,0.00,,---,0.00,VWS V14.00,2013-07-03 21:01:00,
2013-07-03 16:03:00,79.0,45.8,29.74,East,97,6.0,7.0,31,0.00,,---,0.00,VWS V14.00,2013-07-03 21:03:00,
2013-07-03 16:06:00,79.2,44.2,29.74,East,80,0.0,7.0,29,0.00,,---,0.00,VWS V14.00,2013-07-03 21:06:00,
2013-07-03 16:08:00,79.6,45.5,29.74,East,89,2.0,8.0,30,0.00,,---,0.00,VWS V14.00,2013-07-03 21:08:00,
2013-07-03 16:09:00,79.8,44.8,29.74,East,89,3.0,8.0,29,0.00,,---,0.00,VWS V14.00,2013-07-03 21:09:00,
2013-07-03 16:12:00,80.1,45.9,29.74,ESE,116,0.0,12.0,30,0.00,,---,0.00,VWS V14.00,2013-07-03 21:12:00,
2013-07-03 16:13:00,80.5,44.4,29.74,ESE,116,0.0,12.0,28,0.00,,---,0.00,VWS V14.00,2013-07-03 21:13:00,
2013-07-03 16:14:00,80.9,44.8,29.74,ESE,117,2.0,12.0,28,0.00,,---,0.00,VWS V14.00,2013-07-03 21:14:00,
2013-07-03 16:17:00,81.2,45.0,29.74,SE,124,1.0,12.0,28,0.00,,---,0.00,VWS V14.00,2013-07-03 21:17:00,
2013-07-03 16:18:00,81.4,45.2,29.74,SE,141,8.0,12.0,28,0.00,,---,0.00,VWS V14.00,2013-07-03 21:18:00,
2013-07-03 16:19:00,81.2,44.1,29.74,SSE,148,0.0,12.0,27,0.00,,---,0.00,VWS V14.00,2013-07-03 21:19:00,
2013-07-03 16:22:00,80.3,44.3,29.74,East,90,5.0,12.0,28,0.00,,---,0.00,VWS V14.00,2013-07-03 21:22:00,
2013-07-03 16:23:00,80.1,44.1,29.74,East,90,0.0,12.0,28,0.00,,---,0.00,VWS V14.00,2013-07-03 21:23:00,
2013-07-03 16:25:00,79.6,44.6,29.74,ENE,68,0.0,12.0,29,0.00,,---,0.00,VWS V14.00,2013-07-03 21:25:00,
2013-07-03 16:27:00,79.0,45.0,29.74,SSE,161,6.0,12.0,30,0.00,,---,0.00,VWS V14.00,2013-07-03 21:27:00,
2013-07-03 16:28:00,78.8,44.8,29.74,SSE,165,6.0,12.0,30,0.00,,---,0.00,VWS V14.00,2013-07-03 21:28:00,
2013-07-03 16:29:00,78.6,44.6,29.74,South,182,4.0,12.0,30,0.00,,---,0.00,VWS V14.00,2013-07-03 21:29:00,
2013-07-03 16:30:00,78.5,44.5,29.74,South,182,0.0,0.0,30,0.00,,---,0.00,VWS V14.00,2013-07-03 21:30:00,
2013-07-03 16:33:00,78.6,44.6,29.74,South,174,0.0,12.0,30,0.00,,---,0.00,VWS V14.00,2013-07-03 21:33:00,
2013-07-03 16:34:00,78.6,44.6,29.74,South,175,0.0,12.0,30,0.00,,---,0.00,VWS V14.00,2013-07-03 21:34:00,
2013-07-03 16:35:00,78.6,44.6,29.74,South,175,0.0,12.0,30,0.00,,---,0.00,VWS V14.00,2013-07-03 21:35:00,
2013-07-03 16:39:00,78.8,45.6,29.74,SE,126,3.0,12.0,31,0.00,,---,0.00,VWS V14.00,2013-07-03 21:39:00,
2013-07-03 16:40:00,78.8,44.8,29.74,ESE,103,7.0,12.0,30,0.00,,---,0.00,VWS V14.00,2013-07-03 21:40:00,
2013-07-03 16:44:00,78.8,44.8,29.73,ESE,104,6.0,12.0,30,0.00,,---,0.00,VWS V14.00,2013-07-03 21:44:00,
2013-07-03 16:45:00,78.6,44.6,29.73,ESE,116,5.0,12.0,30,0.00,,---,0.00,VWS V14.00,2013-07-03 21:45:00,
2013-07-03 16:46:00,79.0,45.0,29.73,ESE,121,3.0,12.0,30,0.00,,---,0.00,VWS V14.00,2013-07-03 21:46:00,
2013-07-03 16:50:00,78.6,44.6,29.73,SE,127,0.0,12.0,30,0.00,,---,0.00,VWS V14.00,2013-07-03 21:50:00,
2013-07-03 16:51:00,78.6,44.6,29.73,SE,127,0.0,12.0,30,0.00,,---,0.00,VWS V14.00,2013-07-03 21:51:00,
2013-07-03 16:52:00,78.5,44.5,29.73,SE,127,0.0,12.0,30,0.00,,---,0.00,VWS V14.00,2013-07-03 21:52:00,
2013-07-03 16:55:00,78.1,45.0,29.73,ESE,112,0.0,12.0,31,0.00,,---,0.00,VWS V14.00,2013-07-03 21:55:00,
2013-07-03 16:56:00,78.1,45.0,29.73,ESE,112,0.0,12.0,31,0.00,,---,0.00,VWS V14.00,2013-07-03 21:56:00,
2013-07-03 16:58:00,77.9,44.9,29.73,East,93,0.0,12.0,31,0.00,,---,0.00,VWS V14.00,2013-07-03 21:58:00,
2013-07-03 17:01:00,77.9,44.9,29.73,East,93,0.0,0.0,31,0.00,,---,0.00,VWS V14.00,2013-07-03 22:01:00,
2013-07-03 17:02:00,77.7,44.7,29.73,East,93,0.0,0.0,31,0.00,,---,0.00,VWS V14.00,2013-07-03 22:02:00,
2013-07-03 17:03:00,77.9,44.9,29.73,East,93,0.0,0.0,31,0.00,,---,0.00,VWS V14.00,2013-07-03 22:03:00,
2013-07-03 17:07:00,78.1,45.0,29.73,East,93,0.0,0.0,31,0.00,,---,0.00,VWS V14.00,2013-07-03 22:07:00,
2013-07-03 17:08:00,78.3,44.3,29.73,East,93,0.0,0.0,30,0.00,,---,0.00,VWS V14.00,2013-07-03 22:08:00,
2013-07-03 17:09:00,78.3,44.3,29.73,South,176,9.0,9.0,30,0.00,,---,0.00,VWS V14.00,2013-07-03 22:09:00,
2013-07-03 17:12:00,78.5,44.5,29.73,ENE,72,0.0,9.0,30,0.00,,---,0.00,VWS V14.00,2013-07-03 22:12:00,
2013-07-03 17:13:00,78.5,44.5,29.72,SSW,202,0.0,9.0,30,0.00,,---,0.00,VWS V14.00,2013-07-03 22:13:00,
2013-07-03 17:14:00,78.5,44.5,29.72,SSW,202,0.0,9.0,30,0.00,,---,0.00,VWS V14.00,2013-07-03 22:14:00,
2013-07-03 17:17:00,78.6,43.7,29.72,South,191,0.0,9.0,29,0.00,,---,0.00,VWS V14.00,2013-07-03 22:17:00,
2013-07-03 17:18:00,78.6,43.7,29.72,South,191,0.0,9.0,29,0.00,,---,0.00,VWS V14.00,2013-07-03 22:18:00,
2013-07-03 17:19:00,78.6,43.7,29.72,South,191,0.0,9.0,29,0.00,,---,0.00,VWS V14.00,2013-07-03 22:19:00,
2013-07-03 17:23:00,78.6,43.7,29.72,South,191,0.0,9.0,29,0.00,,---,0.00,VWS V14.00,2013-07-03 22:23:00,
2013-07-03 17:24:00,79.0,44.1,29.72,South,191,0.0,9.0,29,0.00,,---,0.00,VWS V14.00,2013-07-03 22:24:00,
2013-07-03 17:25:00,79.0,44.1,29.72,South,191,0.0,9.0,29,0.00,,---,0.00,VWS V14.00,2013-07-03 22:25:00,
2013-07-03 17:28:00,79.4,44.4,29.72,SSE,151,0.0,9.0,29,0.00,,---,0.00,VWS V14.00,2013-07-03 22:28:00,
2013-07-03 17:29:00,79.6,43.7,29.72,SSE,148,0.0,0.0,28,0.00,,---,0.00,VWS V14.00,2013-07-03 22:29:00,
2013-07-03 17:32:00,79.4,43.5,29.72,SSE,147,0.0,0.0,28,0.00,,---,0.00,VWS V14.00,2013-07-03 22:32:00,
2013-07-03 17:33:00,79.4,43.5,29.72,SE,144,0.0,0.0,28,0.00,,---,0.00,VWS V14.00,2013-07-03 22:33:00,
2013-07-03 17:34:00,79.0,44.1,29.72,SE,127,0.0,0.0,29,0.00,,---,0.00,VWS V14.00,2013-07-03 22:34:00,
2013-07-03 17:37:00,79.0,44.1,29.72,SE,127,0.0,0.0,29,0.00,,---,0.00,VWS V14.00,2013-07-03 22:37:00,
2013-07-03 17:38:00,78.8,43.9,29.72,SSE,157,0.0,0.0,29,0.00,,---,0.00,VWS V14.00,2013-07-03 22:38:00,
2013-07-03 17:39:00,78.8,43.9,29.72,SSE,157,0.0,0.0,29,0.00,,---,0.00,VWS V14.00,2013-07-03 22:39:00,
2013-07-03 17:40:00,78.8,43.9,29.72,SSE,157,0.0,0.0,29,0.00,,---,0.00,VWS V14.00,2013-07-03 22:40:00,
2013-07-03 17:42:00,78.8,43.9,29.72,ESE,103,0.0,0.0,29,0.00,,---,0.00,VWS V14.00,2013-07-03 22:42:00,
2013-07-03 17:43:00,78.6,44.6,29.71,ESE,103,0.0,0.0,30,0.00,,---,0.00,VWS V14.00,2013-07-03 22:43:00,
2013-07-03 17:44:00,78.6,43.7,29.71,ESE,103,0.0,0.0,29,0.00,,---,0.00,VWS V14.00,2013-07-03 22:44:00,
2013-07-03 17:45:00,78.6,43.7,29.71,ESE,103,0.0,0.0,29,0.00,,---,0.00,VWS V14.00,2013-07-03 22:45:00,
2013-07-03 17:47:00,78.8,43.9,29.71,ESE,103,0.0,0.0,29,0.00,,---,0.00,VWS V14.00,2013-07-03 22:47:00,
2013-07-03 17:49:00,79.0,44.1,29.71,ESE,103,0.0,0.0,29,0.00,,---,0.00,VWS V14.00,2013-07-03 22:49:00,
2013-07-03 17:50:00,79.0,44.1,29.71,ESE,103,0.0,0.0,29,0.00,,---,0.00,VWS V14.00,2013-07-03 22:50:00,
2013-07-03 17:52:00,79.0,44.1,29.71,ESE,116,0.0,0.0,29,0.00,,---,0.00,VWS V14.00,2013-07-03 22:52:00,
2013-07-03 17:54:00,79.2,44.2,29.71,SE,127,2.0,6.0,29,0.00,,---,0.00,VWS V14.00,2013-07-03 22:54:00,
2013-07-03 17:56:00,79.2,44.2,29.71,SE,127,0.0,6.0,29,0.00,,---,0.00,VWS V14.00,2013-07-03 22:56:00,
2013-07-03 17:58:00,79.2,44.2,29.71,SE,127,0.0,6.0,29,0.00,,---,0.00,VWS V14.00,2013-07-03 22:58:00,
2013-07-03 18:00:00,79.0,42.2,29.71,SE,133,4.0,6.0,27,0.00,,---,0.00,VWS V14.00,2013-07-03 23:00:00,
2013-07-03 18:01:00,79.0,44.1,29.71,SE,133,0.0,6.0,29,0.00,,---,0.00,VWS V14.00,2013-07-03 23:01:00,
2013-07-03 18:03:00,79.2,44.2,29.71,SE,138,0.0,8.0,29,0.00,,---,0.00,VWS V14.00,2013-07-03 23:03:00,
2013-07-03 18:05:00,79.2,44.2,29.71,SE,130,0.0,8.0,29,0.00,,---,0.00,VWS V14.00,2013-07-03 23:05:00,
2013-07-03 18:06:00,79.4,44.4,29.71,SE,130,0.0,8.0,29,0.00,,---,0.00,VWS V14.00,2013-07-03 23:06:00,
2013-07-03 18:08:00,79.4,43.5,29.71,SE,128,0.0,8.0,28,0.00,,---,0.00,VWS V14.00,2013-07-03 23:08:00,
2013-07-03 18:10:00,79.6,43.7,29.71,ESE,106,0.0,8.0,28,0.00,,---,0.00,VWS V14.00,2013-07-03 23:10:00,
2013-07-03 18:12:00,79.6,43.7,29.71,ESE,103,0.0,8.0,28,0.00,,---,0.00,VWS V14.00,2013-07-03 23:12:00,
2013-07-03 18:13:00,79.9,43.9,29.69,ESE,103,0.0,8.0,28,0.00,,---,0.00,VWS V14.00,2013-07-03 23:13:00,
2013-07-03 18:14:00,79.9,43.0,29.69,ESE,117,0.0,8.0,27,0.00,,---,0.00,VWS V14.00,2013-07-03 23:14:00,
2013-07-03 18:15:00,79.9,44.8,29.69,ESE,104,6.0,11.0,29,0.00,,---,0.00,VWS V14.00,2013-07-03 23:15:00,
2013-07-03 18:17:00,79.6,44.6,29.69,ESE,107,0.0,11.0,29,0.00,,---,0.00,VWS V14.00,2013-07-03 23:17:00,
2013-07-03 18:18:00,79.4,45.3,29.69,SE,127,3.0,11.0,30,0.00,,---,0.00,VWS V14.00,2013-07-03 23:18:00,
2013-07-03 18:20:00,79.2,46.0,29.69,SE,131,0.0,11.0,31,0.00,,---,0.00,VWS V14.00,2013-07-03 23:20:00,
2013-07-03 18:21:00,79.0,45.0,29.69,SE,130,6.0,11.0,30,0.00,,---,0.00,VWS V14.00,2013-07-03 23:21:00,
2013-07-03 18:23:00,79.0,45.0,29.69,ESE,120,0.0,11.0,30,0.00,,---,0.00,VWS V14.00,2013-07-03 23:23:00,
2013-07-03 18:24:00,79.0,45.0,29.69,ESE,120,0.0,11.0,30,0.00,,---,0.00,VWS V14.00,2013-07-03 23:24:00,
2013-07-03 18:25:00,79.0,45.0,29.69,SE,127,0.0,11.0,30,0.00,,---,0.00,VWS V14.00,2013-07-03 23:25:00,
2013-07-03 18:26:00,79.0,45.0,29.69,ESE,120,0.0,11.0,30,0.00,,---,0.00,VWS V14.00,2013-07-03 23:26:00,
2013-07-03 18:28:00,79.0,44.1,29.69,SE,128,0.0,11.0,29,0.00,,---,0.00,VWS V14.00,2013-07-03 23:28:00,
2013-07-03 18:29:00,79.2,45.1,29.70,SE,128,0.0,11.0,30,0.00,,---,0.00,VWS V14.00,2013-07-03 23:29:00,
2013-07-03 18:30:00,79.2,45.1,29.70,SE,131,6.0,9.0,30,0.00,,---,0.00,VWS V14.00,2013-07-03 23:30:00,
2013-07-03 18:32:00,79.0,45.0,29.70,SE,133,0.0,9.0,30,0.00,,---,0.00,VWS V14.00,2013-07-03 23:32:00,
2013-07-03 18:33:00,78.8,44.8,29.70,SE,136,5.0,9.0,30,0.00,,---,0.00,VWS V14.00,2013-07-03 23:33:00,
2013-07-03 18:34:00,78.8,44.8,29.70,SE,136,2.0,9.0,30,0.00,,---,0.00,VWS V14.00,2013-07-03 23:34:00,
2013-07-03 18:35:00,78.6,44.6,29.70,SE,140,6.0,9.0,30,0.00,,---,0.00,VWS V14.00,2013-07-03 23:35:00,
2013-07-03 18:37:00,78.8,44.8,29.70,SE,141,0.0,9.0,30,0.00,,---,0.00,VWS V14.00,2013-07-03 23:37:00,
2013-07-03 18:39:00,78.8,43.0,29.70,SE,141,2.0,9.0,28,0.00,,---,0.00,VWS V14.00,2013-07-03 23:39:00,
2013-07-03 18:41:00,79.0,45.0,29.70,SSE,151,8.0,9.0,30,0.00,,---,0.00,VWS V14.00,2013-07-03 23:41:00,
2013-07-03 18:44:00,78.6,44.6,29.69,SE,126,0.0,9.0,30,0.00,,---,0.00,VWS V14.00,2013-07-03 23:44:00,
2013-07-03 18:46:00,78.5,44.5,29.69,SE,134,5.0,9.0,30,0.00,,---,0.00,VWS V14.00,2013-07-03 23:46:00,
2013-07-03 18:49:00,78.5,43.6,29.69,SE,126,0.0,9.0,29,0.00,,---,0.00,VWS V14.00,2013-07-03 23:49:00,
2013-07-03 18:50:00,78.5,44.5,29.69,SE,126,0.0,9.0,30,0.00,,---,0.00,VWS V14.00,2013-07-03 23:50:00,
2013-07-03 18:51:00,78.5,44.5,29.69,SE,127,0.0,9.0,30,0.00,,---,0.00,VWS V14.00,2013-07-03 23:51:00,
2013-07-03 18:52:00,78.5,44.5,29.69,SSE,152,0.0,9.0,30,0.00,,---,0.00,VWS V14.00,2013-07-03 23:52:00,
2013-07-03 18:55:00,78.5,44.5,29.69,SSE,164,6.0,9.0,30,0.00,,---,0.00,VWS V14.00,2013-07-03 23:55:00,
2013-07-03 18:57:00,78.3,44.3,29.69,South,172,0.0,9.0,30,0.00,,---,0.00,VWS V14.00,2013-07-03 23:57:00,
2013-07-03 18:59:00,78.3,44.3,29.69,South,172,0.0,9.0,30,0.00,,---,0.00,VWS V14.00,2013-07-03 23:59:00,
2013-07-03 19:00:00,78.1,44.2,29.69,South,169,0.0,0.0,30,0.00,,---,0.00,VWS V14.00,2013-07-04 00:00:00,
2013-07-03 19:02:00,78.1,44.2,29.69,SSE,168,0.0,0.0,30,0.00,,---,0.00,VWS V14.00,2013-07-04 00:02:00,
2013-07-03 19:04:00,78.5,44.5,29.69,SSE,161,0.0,0.0,30,0.00,,---,0.00,VWS V14.00,2013-07-04 00:04:00,
2013-07-03 19:06:00,78.8,44.8,29.69,SSE,162,0.0,0.0,30,0.00,,---,0.00,VWS V14.00,2013-07-04 00:06:00,
2013-07-03 19:07:00,79.0,44.1,29.69,SSE,162,0.0,0.0,29,0.00,,---,0.00,VWS V14.00,2013-07-04 00:07:00,
2013-07-03 19:10:00,79.0,44.1,29.69,ESE,116,0.0,7.0,29,0.00,,---,0.00,VWS V14.00,2013-07-04 00:10:00,
2013-07-03 19:11:00,79.0,44.1,29.69,ESE,116,0.0,7.0,29,0.00,,---,0.00,VWS V14.00,2013-07-04 00:11:00,
2013-07-03 19:12:00,79.0,44.1,29.69,ESE,116,0.0,7.0,29,0.00,,---,0.00,VWS V14.00,2013-07-04 00:12:00,
2013-07-03 19:13:00,78.8,43.9,29.69,ESE,116,0.0,7.0,29,0.00,,---,0.00,VWS V14.00,2013-07-04 00:13:00,
2013-07-03 19:15:00,78.8,43.9,29.69,ESE,113,0.0,7.0,29,0.00,,---,0.00,VWS V14.00,2013-07-04 00:15:00,
2013-07-03 19:16:00,78.8,43.9,29.69,ESE,113,0.0,7.0,29,0.00,,---,0.00,VWS V14.00,2013-07-04 00:16:00,
2013-07-03 19:17:00,78.8,43.9,29.69,ESE,113,0.0,7.0,29,0.00,,---,0.00,VWS V14.00,2013-07-04 00:17:00,
2013-07-03 19:18:00,78.8,43.9,29.69,ESE,113,0.0,7.0,29,0.00,,---,0.00,VWS V14.00,2013-07-04 00:18:00,
2013-07-03 19:20:00,78.8,43.9,29.69,ESE,114,0.0,7.0,29,0.00,,---,0.00,VWS V14.00,2013-07-04 00:20:00,
2013-07-03 19:21:00,78.8,43.9,29.69,ESE,113,0.0,7.0,29,0.00,,---,0.00,VWS V14.00,2013-07-04 00:21:00,
2013-07-03 19:22:00,78.8,43.9,29.69,ESE,114,0.0,7.0,29,0.00,,---,0.00,VWS V14.00,2013-07-04 00:22:00,
2013-07-03 19:23:00,78.8,43.9,29.69,ESE,107,0.0,7.0,29,0.00,,---,0.00,VWS V14.00,2013-07-04 00:23:00,
2013-07-03 19:26:00,78.3,42.5,29.69,ESE,109,8.0,9.0,28,0.00,,---,0.00,VWS V14.00,2013-07-04 00:26:00,
2013-07-03 19:28:00,78.1,44.2,29.69,ESE,114,0.0,9.0,30,0.00,,---,0.00,VWS V14.00,2013-07-04 00:28:00,
2013-07-03 19:31:00,78.3,44.3,29.69,East,88,0.0,0.0,30,0.00,,---,0.00,VWS V14.00,2013-07-04 00:31:00,
2013-07-03 19:32:00,78.5,44.5,29.69,East,89,0.0,0.0,30,0.00,,---,0.00,VWS V14.00,2013-07-04 00:32:00,
2013-07-03 19:33:00,78.5,43.6,29.69,East,90,0.0,0.0,29,0.00,,---,0.00,VWS V14.00,2013-07-04 00:33:00,
2013-07-03 19:36:00,78.5,43.6,29.69,East,90,0.0,0.0,29,0.00,,---,0.00,VWS V14.00,2013-07-04 00:36:00,
2013-07-03 19:37:00,78.5,43.6,29.69,East,93,0.0,6.0,29,0.00,,---,0.00,VWS V14.00,2013-07-04 00:37:00,
2013-07-03 19:38:00,78.3,43.5,29.69,East,93,0.0,6.0,29,0.00,,---,0.00,VWS V14.00,2013-07-04 00:38:00,
2013-07-03 19:42:00,78.5,44.5,29.69,East,93,0.0,6.0,30,0.00,,---,0.00,VWS V14.00,2013-07-04 00:42:00,
2013-07-03 19:43:00,78.5,44.5,29.69,East,93,0.0,6.0,30,0.00,,---,0.00,VWS V14.00,2013-07-04 00:43:00,
2013-07-03 19:44:00,78.5,43.6,29.69,East,93,0.0,6.0,29,0.00,,---,0.00,VWS V14.00,2013-07-04 00:44:00,
2013-07-03 19:47:00,78.6,43.7,29.69,East,95,0.0,6.0,29,0.00,,---,0.00,VWS V14.00,2013-07-04 00:47:00,
2013-07-03 19:48:00,78.5,43.6,29.69,East,95,0.0,6.0,29,0.00,,---,0.00,VWS V14.00,2013-07-04 00:48:00,
2013-07-03 19:49:00,78.3,43.5,29.69,East,97,0.0,6.0,29,0.00,,---,0.00,VWS V14.00,2013-07-04 00:49:00,
2013-07-03 19:52:00,77.7,44.7,29.69,ESE,103,3.0,10.0,31,0.00,,---,0.00,VWS V14.00,2013-07-04 00:52:00,
2013-07-03 19:53:00,77.6,45.4,29.69,ESE,107,0.0,10.0,32,0.00,,---,0.00,VWS V14.00,2013-07-04 00:53:00,
2013-07-03 19:54:00,77.6,45.4,29.69,ESE,107,0.0,10.0,32,0.00,,---,0.00,VWS V14.00,2013-07-04 00:54:00,
2013-07-03 19:57:00,77.2,44.2,29.69,ESE,107,0.0,10.0,31,0.00,,---,0.00,VWS V14.00,2013-07-04 00:57:00,
2013-07-03 19:58:00,77.0,44.1,29.71,ESE,107,0.0,10.0,31,0.00,,---,0.00,VWS V14.00,2013-07-04 00:58:00,
2013-07-03 19:59:00,76.8,43.9,29.71,ESE,107,0.0,0.0,31,0.00,,---,0.00,VWS V14.00,2013-07-04 00:59:00,
2013-07-03 20:00:00,76.8,43.9,29.71,ESE,107,0.0,0.0,31,0.00,,---,0.00,VWS V14.00,2013-07-04 01:00:00,
2013-07-03 20:02:00,76.8,43.9,29.71,ESE,107,0.0,0.0,31,0.00,,---,0.00,VWS V14.00,2013-07-04 01:02:00,
2013-07-03 20:04:00,76.7,43.8,29.71,ESE,107,0.0,0.0,31,0.00,,---,0.00,VWS V14.00,2013-07-04 01:04:00,
2013-07-03 20:05:00,76.7,43.8,29.71,ESE,107,0.0,0.0,31,0.00,,---,0.00,VWS V14.00,2013-07-04 01:05:00,
2013-07-03 20:08:00,76.5,44.5,29.71,ESE,107,0.0,0.0,32,0.00,,---,0.00,VWS V14.00,2013-07-04 01:08:00,
2013-07-03 20:09:00,76.3,44.3,29.71,ESE,107,0.0,0.0,32,0.00,,---,0.00,VWS V14.00,2013-07-04 01:09:00,
2013-07-03 20:10:00,76.3,44.3,29.71,ESE,107,0.0,0.0,32,0.00,,---,0.00,VWS V14.00,2013-07-04 01:10:00,
2013-07-03 20:11:00,76.1,44.1,29.71,ESE,107,0.0,0.0,32,0.00,,---,0.00,VWS V14.00,2013-07-04 01:11:00,
2013-07-03 20:13:00,76.1,44.1,29.71,ESE,107,0.0,0.0,32,0.00,,---,0.00,VWS V14.00,2013-07-04 01:13:00,
2013-07-03 20:15:00,76.1,44.1,29.66,ESE,107,0.0,0.0,32,0.00,,---,0.00,VWS V14.00,2013-07-04 01:15:00,
2013-07-03 20:16:00,76.1,44.1,29.66,ESE,107,5.0,5.0,32,0.00,,---,0.00,VWS V14.00,2013-07-04 01:16:00,
2013-07-03 20:18:00,76.1,44.1,29.66,ESE,107,0.0,7.0,32,0.00,,---,0.00,VWS V14.00,2013-07-04 01:18:00,
2013-07-03 20:20:00,76.1,44.1,29.66,ESE,107,0.0,7.0,32,0.00,,---,0.00,VWS V14.00,2013-07-04 01:20:00,
2013-07-03 20:21:00,76.1,44.1,29.66,ESE,107,0.0,7.0,32,0.00,,---,0.00,VWS V14.00,2013-07-04 01:21:00,
2013-07-03 20:22:00,76.1,44.1,29.66,ESE,107,0.0,7.0,32,0.00,,---,0.00,VWS V14.00,2013-07-04 01:22:00,
2013-07-03 20:23:00,76.1,44.1,29.66,ESE,107,0.0,7.0,32,0.00,,---,0.00,VWS V14.00,2013-07-04 01:23:00,
2013-07-03 20:25:00,76.0,44.0,29.66,ESE,109,0.0,7.0,32,0.00,,---,0.00,VWS V14.00,2013-07-04 01:25:00,
2013-07-03 20:26:00,76.0,44.0,29.66,ESE,109,0.0,7.0,32,0.00,,---,0.00,VWS V14.00,2013-07-04 01:26:00,
2013-07-03 20:27:00,76.0,44.0,29.66,ESE,109,0.0,7.0,32,0.00,,---,0.00,VWS V14.00,2013-07-04 01:27:00,
2013-07-03 20:28:00,76.0,44.0,29.66,ESE,109,0.0,7.0,32,0.00,,---,0.00,VWS V14.00,2013-07-04 01:28:00,
2013-07-03 20:31:00,75.8,43.9,29.66,ESE,116,2.0,7.0,32,0.00,,---,0.00,VWS V14.00,2013-07-04 01:31:00,
2013-07-03 20:32:00,75.8,43.9,29.66,ESE,116,0.0,7.0,32,0.00,,---,0.00,VWS V14.00,2013-07-04 01:32:00,
2013-07-03 20:33:00,75.8,43.9,29.66,ESE,116,3.0,7.0,32,0.00,,---,0.00,VWS V14.00,2013-07-04 01:33:00,
2013-07-03 20:36:00,75.6,43.7,29.66,ESE,116,0.0,7.0,32,0.00,,---,0.00,VWS V14.00,2013-07-04 01:36:00,
2013-07-03 20:37:00,75.6,43.7,29.66,ESE,116,0.0,7.0,32,0.00,,---,0.00,VWS V14.00,2013-07-04 01:37:00,
2013-07-03 20:38:00,75.6,43.7,29.66,ESE,116,2.0,7.0,32,0.00,,---,0.00,VWS V14.00,2013-07-04 01:38:00,
2013-07-03 20:41:00,75.4,43.5,29.66,ESE,119,0.0,7.0,32,0.00,,---,0.00,VWS V14.00,2013-07-04 01:41:00,
2013-07-03 20:42:00,75.4,43.5,29.66,ESE,119,0.0,7.0,32,0.00,,---,0.00,VWS V14.00,2013-07-04 01:42:00,
2013-07-03 20:44:00,75.4,43.5,29.67,ESE,119,0.0,7.0,32,0.00,,---,0.00,VWS V14.00,2013-07-04 01:44:00,
2013-07-03 20:46:00,75.3,43.4,29.67,ESE,119,0.0,7.0,32,0.00,,---,0.00,VWS V14.00,2013-07-04 01:46:00,
2013-07-03 20:48:00,75.3,43.4,29.67,ESE,119,0.0,7.0,32,0.00,,---,0.00,VWS V14.00,2013-07-04 01:48:00,
2013-07-03 20:49:00,75.3,43.4,29.67,ESE,119,0.0,7.0,32,0.00,,---,0.00,VWS V14.00,2013-07-04 01:49:00,
2013-07-03 20:52:00,75.1,44.1,29.67,ESE,119,0.0,7.0,33,0.00,,---,0.00,VWS V14.00,2013-07-04 01:52:00,
2013-07-03 20:53:00,74.9,43.9,29.67,ESE,119,0.0,7.0,33,0.00,,---,0.00,VWS V14.00,2013-07-04 01:53:00,
2013-07-03 20:54:00,74.9,43.9,29.67,ESE,119,0.0,7.0,33,0.00,,---,0.00,VWS V14.00,2013-07-04 01:54:00,
2013-07-03 20:56:00,74.9,43.9,29.67,ESE,119,0.0,7.0,33,0.00,,---,0.00,VWS V14.00,2013-07-04 01:56:00,
2013-07-03 20:57:00,74.9,43.9,29.67,ESE,119,0.0,7.0,33,0.00,,---,0.00,VWS V14.00,2013-07-04 01:57:00,
2013-07-03 20:59:00,74.7,43.7,29.67,ESE,119,0.0,7.0,33,0.00,,---,0.00,VWS V14.00,2013-07-04 01:59:00,
2013-07-03 21:01:00,74.7,43.7,29.67,ESE,120,6.0,8.0,33,0.00,,---,0.00,VWS V14.00,2013-07-04 02:01:00,
2013-07-03 21:02:00,74.7,43.7,29.67,ESE,119,5.0,8.0,33,0.00,,---,0.00,VWS V14.00,2013-07-04 02:02:00,
2013-07-03 21:04:00,74.7,43.7,29.67,ESE,119,0.0,8.0,33,0.00,,---,0.00,VWS V14.00,2013-07-04 02:04:00,
2013-07-03 21:07:00,74.6,43.6,29.67,ESE,120,0.0,8.0,33,0.00,,---,0.00,VWS V14.00,2013-07-04 02:07:00,
2013-07-03 21:08:00,74.6,43.6,29.67,ESE,120,0.0,8.0,33,0.00,,---,0.00,VWS V14.00,2013-07-04 02:08:00,
2013-07-03 21:09:00,74.4,43.5,29.67,ESE,120,0.0,8.0,33,0.00,,---,0.00,VWS V14.00,2013-07-04 02:09:00,
2013-07-03 21:12:00,74.2,43.3,29.67,ESE,120,0.0,8.0,33,0.00,,---,0.00,VWS V14.00,2013-07-04 02:12:00,
2013-07-03 21:14:00,74.2,44.1,29.66,SE,126,1.0,8.0,34,0.00,,---,0.00,VWS V14.00,2013-07-04 02:14:00,
2013-07-03 21:15:00,74.2,44.1,29.66,SE,126,2.0,8.0,34,0.00,,---,0.00,VWS V14.00,2013-07-04 02:15:00,
2013-07-03 21:17:00,74.2,43.3,29.66,SE,127,7.0,8.0,33,0.00,,---,0.00,VWS V14.00,2013-07-04 02:17:00,
2013-07-03 21:19:00,74.2,43.3,29.66,SE,127,5.0,8.0,33,0.00,,---,0.00,VWS V14.00,2013-07-04 02:19:00,
2013-07-03 21:20:00,74.2,41.7,29.66,SE,127,0.0,8.0,31,0.00,,---,0.00,VWS V14.00,2013-07-04 02:20:00,
2013-07-03 21:21:00,74.2,43.3,29.66,SE,127,0.0,8.0,33,0.00,,---,0.00,VWS V14.00,2013-07-04 02:21:00,
2013-07-03 21:22:00,74.0,43.1,29.66,SE,127,0.0,8.0,33,0.00,,---,0.00,VWS V14.00,2013-07-04 02:22:00,
2013-07-03 21:25:00,74.0,43.1,29.66,SE,126,1.0,10.0,33,0.00,,---,0.00,VWS V14.00,2013-07-04 02:25:00,
2013-07-03 21:26:00,74.0,42.3,29.66,SE,126,0.0,10.0,32,0.00,,---,0.00,VWS V14.00,2013-07-04 02:26:00,
2013-07-03 21:28:00,73.9,43.0,29.66,SE,126,0.0,10.0,33,0.00,,---,0.00,VWS V14.00,2013-07-04 02:28:00,
2013-07-03 21:30:00,73.7,42.8,29.67,SE,126,0.0,2.0,33,0.00,,---,0.00,VWS V14.00,2013-07-04 02:30:00,
2013-07-03 21:31:00,73.7,42.8,29.67,SE,126,0.0,2.0,33,0.00,,---,0.00,VWS V14.00,2013-07-04 02:31:00,
2013-07-03 21:33:00,73.7,42.0,29.67,SE,126,0.0,2.0,32,0.00,,---,0.00,VWS V14.00,2013-07-04 02:33:00,
2013-07-03 21:35:00,73.7,42.0,29.67,SE,126,0.0,2.0,32,0.00,,---,0.00,VWS V14.00,2013-07-04 02:35:00,
2013-07-03 21:36:00,73.7,42.0,29.67,SE,126,0.0,2.0,32,0.00,,---,0.00,VWS V14.00,2013-07-04 02:36:00,
2013-07-03 21:37:00,73.5,42.7,29.67,SE,126,0.0,2.0,33,0.00,,---,0.00,VWS V14.00,2013-07-04 02:37:00,
2013-07-03 21:41:00,73.3,42.5,29.67,SE,126,0.0,2.0,33,0.00,,---,0.00,VWS V14.00,2013-07-04 02:41:00,
2013-07-03 21:42:00,73.3,42.5,29.67,SE,126,0.0,2.0,33,0.00,,---,0.00,VWS V14.00,2013-07-04 02:42:00,
2013-07-03 21:46:00,73.3,42.5,29.68,SE,126,0.0,2.0,33,0.00,,---,0.00,VWS V14.00,2013-07-04 02:46:00,
2013-07-03 21:47:00,73.3,42.5,29.68,SE,126,0.0,2.0,33,0.00,,---,0.00,VWS V14.00,2013-07-04 02:47:00,
2013-07-03 21:51:00,73.2,42.4,29.68,SE,126,0.0,8.0,33,0.00,,---,0.00,VWS V14.00,2013-07-04 02:51:00,
2013-07-03 21:52:00,73.2,42.4,29.68,SE,126,0.0,8.0,33,0.00,,---,0.00,VWS V14.00,2013-07-04 02:52:00,
2013-07-03 21:56:00,73.2,41.6,29.68,SE,126,0.0,8.0,32,0.00,,---,0.00,VWS V14.00,2013-07-04 02:56:00,
2013-07-03 21:57:00,73.2,42.4,29.68,SE,126,0.0,8.0,33,0.00,,---,0.00,VWS V14.00,2013-07-04 02:57:00,
2013-07-03 21:58:00,73.2,42.4,29.68,SE,126,0.0,8.0,33,0.00,,---,0.00,VWS V14.00,2013-07-04 02:58:00,
2013-07-03 22:02:00,73.2,41.6,29.68,SE,126,0.0,0.0,32,0.00,,---,0.00,VWS V14.00,2013-07-04 03:02:00,
2013-07-03 22:03:00,73.0,42.2,29.68,SE,126,1.0,1.0,33,0.00,,---,0.00,VWS V14.00,2013-07-04 03:03:00,
2013-07-03 22:04:00,73.2,42.4,29.68,SE,126,0.0,3.0,33,0.00,,---,0.00,VWS V14.00,2013-07-04 03:04:00,
2013-07-03 22:07:00,73.0,41.4,29.68,SE,126,0.0,3.0,32,0.00,,---,0.00,VWS V14.00,2013-07-04 03:07:00,
2013-07-03 22:08:00,73.0,41.4,29.68,SE,126,0.0,3.0,32,0.00,,---,0.00,VWS V14.00,2013-07-04 03:08:00,